When you browse on this site, cookies collect data to enhance your experience and personalize the content and advertising you see.
Visit our Privacy Policy to learn more. By continuing to use the site, you agree to this use of cookies and data.
  • En España
  • Lista de países
  • Para 7 días
  • Temperatura del agua
  • Mapa Satelital
  • El tiempo en el mapa
  • Informadores
  • user-avatar
    Iniciar sesión

    Tiempo cada hora Lucknow

    Hoy, 21 Julio, Domingo

    Tiempo Temperatura Precipitaciones Viento Presión Humedad
    00:00 +36°C° 0 mm 1 mps 739 mmHg 47%
    01:00 +35°C° 0 mm 1 mps 738 mmHg 48%
    02:00 +36°C° 0 mm 2 mps 738 mmHg 49%
    03:00 +36°C° 0 mm 2 mps 738 mmHg 51%
    04:00 +35°C° 0 mm 2 mps 738 mmHg 52%
    05:00 +35°C° 0 mm 2 mps 738 mmHg 59%
    06:00 +35°C° 0.8 mm 2 mps 739 mmHg 59%
    07:00 +35°C° 0.8 mm 1 mps 739 mmHg 59%
    08:00 +35°C° 0.8 mm 1 mps 739 mmHg 59%
    09:00 +36°C° 0 mm 1 mps 739 mmHg 56%
    10:00 +36°C° 0 mm 1 mps 739 mmHg 53%
    11:00 +37°C° 0 mm 1 mps 739 mmHg 51%
    12:00 +39°C° 0 mm 1 mps 739 mmHg 48%
    13:00 +39°C° 0 mm 1 mps 738 mmHg 45%
    14:00 +40°C° 0 mm 1 mps 738 mmHg 43%
    15:00 +40°C° 0 mm 1 mps 737 mmHg 43%
    16:00 +40°C° 0 mm 1 mps 736 mmHg 43%
    17:00 +40°C° 0 mm 1 mps 736 mmHg 43%
    18:00 +39°C° 0 mm 1 mps 736 mmHg 45%
    19:00 +39°C° 0 mm 1 mps 736 mmHg 47%
    20:00 +35°C° 0 mm 0 mps 736 mmHg 49%
    21:00 +37°C° 0 mm 1 mps 737 mmHg 50%
    22:00 +36°C° 0 mm 1 mps 737 mmHg 51%
    23:00 +37°C° 0 mm 2 mps 737 mmHg 52%

    Mañana, 22 Julio, Lunes

    Tiempo Temperatura Precipitaciones Viento Presión Humedad
    00:00 +36°C° 0 mm 2 mps 737 mmHg 54%
    01:00 +35°C° 0 mm 1 mps 736 mmHg 55%
    02:00 +35°C° 0 mm 1 mps 736 mmHg 56%
    03:00 +35°C° 0 mm 1 mps 736 mmHg 57%
    04:00 +35°C° 0 mm 1 mps 736 mmHg 57%
    05:00 +35°C° 0 mm 1 mps 736 mmHg 57%
    06:00 +35°C° 0 mm 1 mps 737 mmHg 55%
    07:00 +37°C° 0 mm 2 mps 738 mmHg 52%
    08:00 +38°C° 0 mm 2 mps 738 mmHg 50%
    09:00 +39°C° 0 mm 2 mps 738 mmHg 46%
    10:00 +40°C° 0 mm 2 mps 738 mmHg 42%
    11:00 +42°C° 0 mm 2 mps 737 mmHg 38%
    12:00 +42°C° 0 mm 2 mps 737 mmHg 37%
    13:00 +42°C° 0 mm 2 mps 736 mmHg 37%
    14:00 +42°C° 0 mm 2 mps 736 mmHg 36%
    15:00 +42°C° 0 mm 2 mps 735 mmHg 37%
    16:00 +42°C° 0 mm 2 mps 735 mmHg 37%
    17:00 +42°C° 0 mm 2 mps 734 mmHg 37%
    18:00 +41°C° 0 mm 1 mps 735 mmHg 39%
    19:00 +40°C° 0 mm 1 mps 735 mmHg 40%
    20:00 +36°C° 0 mm 0 mps 735 mmHg 42%
    21:00 +39°C° 0.1 mm 1 mps 735 mmHg 43%
    22:00 +39°C° 0.1 mm 1 mps 735 mmHg 45%
    23:00 +37°C° 0.1 mm 1 mps 735 mmHg 46%

    Pasado mañana, 23 Julio, Martes

    Tiempo Temperatura Precipitaciones Viento Presión Humedad
    00:00 +37°C° 0.1 mm 1 mps 735 mmHg 48%
    01:00 +37°C° 0.1 mm 1 mps 735 mmHg 50%
    02:00 +37°C° 0.1 mm 2 mps 735 mmHg 51%
    03:00 +37°C° 0 mm 2 mps 735 mmHg 54%
    04:00 +36°C° 0 mm 2 mps 735 mmHg 56%
    05:00 +35°C° 0 mm 2 mps 735 mmHg 59%
    06:00 +36°C° 0.1 mm 2 mps 735 mmHg 59%
    07:00 +36°C° 0.1 mm 2 mps 736 mmHg 59%
    08:00 +36°C° 0.1 mm 2 mps 737 mmHg 59%
    09:00 +38°C° 0 mm 2 mps 736 mmHg 54%
    10:00 +39°C° 0 mm 2 mps 736 mmHg 49%
    11:00 +40°C° 0 mm 2 mps 736 mmHg 44%
    12:00 +41°C° 0 mm 2 mps 736 mmHg 40%
    13:00 +43°C° 0 mm 2 mps 735 mmHg 36%
    14:00 +45°C° 0 mm 2 mps 735 mmHg 33%
    15:00 +43°C° 0 mm 2 mps 734 mmHg 35%
    16:00 +42°C° 0 mm 2 mps 734 mmHg 38%
    17:00 +42°C° 0 mm 3 mps 733 mmHg 40%
    18:00 +40°C° 0.1 mm 5 mps 734 mmHg 49%
    19:00 +38°C° 0.1 mm 6 mps 734 mmHg 58%
    20:00 +35°C° 0.1 mm 8 mps 735 mmHg 66%
    21:00 +35°C° 0 mm 7 mps 735 mmHg 68%
    22:00 +34°C° 0 mm 7 mps 736 mmHg 71%
    23:00 +33°C° 0 mm 6 mps 736 mmHg 73%

    24 Julio, Miércoles

    Tiempo Temperatura Precipitaciones Viento Presión Humedad
    00:00 +33°C° 0 mm 6 mps 736 mmHg 74%
    01:00 +32°C° 0 mm 6 mps 736 mmHg 75%
    02:00 +32°C° 0 mm 5 mps 736 mmHg 76%
    03:00 +32°C° 0 mm 5 mps 736 mmHg 77%
    04:00 +32°C° 0 mm 5 mps 736 mmHg 77%
    05:00 +32°C° 0 mm 4 mps 736 mmHg 77%
    06:00 +32°C° 1 mm 4 mps 736 mmHg 76%
    07:00 +32°C° 1 mm 4 mps 737 mmHg 76%
    08:00 +32°C° 1 mm 5 mps 738 mmHg 75%
    09:00 +30°C° 1.7 mm 4 mps 738 mmHg 76%
    10:00 +30°C° 1.7 mm 4 mps 738 mmHg 77%
    11:00 +30°C° 1.7 mm 4 mps 738 mmHg 78%
    12:00 +30°C° 1.7 mm 4 mps 738 mmHg 81%
    13:00 +29°C° 1.7 mm 4 mps 738 mmHg 84%
    14:00 +29°C° 1.7 mm 4 mps 737 mmHg 86%
    15:00 +29°C° 0.4 mm 3 mps 737 mmHg 85%
    16:00 +29°C° 0.4 mm 3 mps 737 mmHg 84%
    17:00 +29°C° 0.4 mm 2 mps 736 mmHg 84%
    18:00 +29°C° 0 mm 2 mps 737 mmHg 84%
    19:00 +29°C° 0 mm 2 mps 737 mmHg 85%
    20:00 +29°C° 0 mm 2 mps 738 mmHg 85%
    21:00 +29°C° 0 mm 2 mps 738 mmHg 86%
    22:00 +29°C° 0 mm 2 mps 738 mmHg 87%
    23:00 +29°C° 0 mm 2 mps 738 mmHg 87%

    25 Julio, Jueves

    Tiempo Temperatura Precipitaciones Viento Presión Humedad
    00:00 +28°C° 0.1 mm 2 mps 738 mmHg 88%
    01:00 +28°C° 0.1 mm 2 mps 738 mmHg 88%
    02:00 +28°C° 0.1 mm 2 mps 737 mmHg 89%
    03:00 +28°C° 0.5 mm 2 mps 737 mmHg 88%
    04:00 +28°C° 0.5 mm 2 mps 737 mmHg 87%
    05:00 +28°C° 0.5 mm 2 mps 737 mmHg 87%
    06:00 +29°C° 1.7 mm 2 mps 738 mmHg 86%
    07:00 +29°C° 1.7 mm 2 mps 738 mmHg 86%
    08:00 +29°C° 1.7 mm 2 mps 739 mmHg 85%
    09:00 +30°C° 1.6 mm 2 mps 739 mmHg 82%
    10:00 +31°C° 1.6 mm 2 mps 739 mmHg 79%
    11:00 +31°C° 1.6 mm 2 mps 739 mmHg 77%
    12:00 +31°C° 1.6 mm 2 mps 738 mmHg 75%
    13:00 +33°C° 1.6 mm 3 mps 738 mmHg 74%
    14:00 +33°C° 1.6 mm 3 mps 737 mmHg 73%
    15:00 +33°C° 0.1 mm 3 mps 737 mmHg 75%
    16:00 +31°C° 0.1 mm 2 mps 737 mmHg 77%
    17:00 +31°C° 0.1 mm 2 mps 737 mmHg 79%
    18:00 +31°C° 0 mm 2 mps 737 mmHg 80%
    19:00 +30°C° 0 mm 2 mps 737 mmHg 81%
    20:00 +30°C° 0 mm 1 mps 737 mmHg 82%
    21:00 +30°C° 0 mm 2 mps 737 mmHg 83%
    22:00 +30°C° 0 mm 2 mps 737 mmHg 83%
    23:00 +30°C° 0 mm 2 mps 737 mmHg 83%

    26 Julio, Viernes

    Tiempo Temperatura Precipitaciones Viento Presión Humedad
    00:00 +29°C° 0.2 mm 2 mps 737 mmHg 84%
    01:00 +29°C° 0.2 mm 3 mps 737 mmHg 85%
    02:00 +29°C° 0.2 mm 3 mps 737 mmHg 85%
    03:00 +29°C° 0.8 mm 3 mps 737 mmHg 85%
    04:00 +29°C° 0.8 mm 3 mps 737 mmHg 84%
    05:00 +29°C° 0.8 mm 3 mps 737 mmHg 84%
    06:00 +30°C° 0.4 mm 3 mps 737 mmHg 79%
    07:00 +32°C° 0.4 mm 4 mps 738 mmHg 75%
    08:00 +33°C° 0.4 mm 4 mps 738 mmHg 71%
    09:00 +35°C° 0 mm 4 mps 738 mmHg 64%
    10:00 +36°C° 0 mm 4 mps 738 mmHg 58%
    11:00 +38°C° 0 mm 4 mps 738 mmHg 52%
    12:00 +38°C° 0 mm 4 mps 737 mmHg 51%
    13:00 +38°C° 0 mm 4 mps 736 mmHg 50%
    14:00 +40°C° 0 mm 4 mps 736 mmHg 48%
    15:00 +38°C° 0 mm 4 mps 736 mmHg 50%
    16:00 +38°C° 0 mm 4 mps 735 mmHg 53%
    17:00 +37°C° 0 mm 4 mps 735 mmHg 55%
    18:00 +36°C° 0.3 mm 5 mps 735 mmHg 60%
    19:00 +35°C° 0.3 mm 5 mps 736 mmHg 64%
    20:00 +34°C° 0.3 mm 5 mps 736 mmHg 69%
    21:00 +34°C° 0.1 mm 5 mps 736 mmHg 71%
    22:00 +33°C° 0.1 mm 5 mps 736 mmHg 72%
    23:00 +33°C° 0.1 mm 5 mps 737 mmHg 73%
    Mostrar más